Pagina principală
METAR-TAF:

METAR-TAF

Aeroporturi :

Puerto Francisco de Orellana, Ecuador

Latitudine: 00-27-46S, longitudine: 076-59-12W, elevație: 254 m

Observații meteo curente

Raportul a fost făcut în urmă cu 10 ore și 28 de minute, la 22:00 UTC
Vânt 3 kt de la Sud
Temperatură 30°C
Umiditate 70%
Presiune 1011 hPa
Vizibilitate de 10 km sau mai mult
Nori puțini la o înălțime de 2600 picior

METAR: SECO 132200Z 17003KT 9999 FEW026 30/24 Q1011 RMK A2985

Ora: 03:28 (08:28 UTC)


TAF: lipsă

Observații și prognoze meteo pentru peste 4.000 de aeroporturi (rapoarte METAR și TAF).

Stațiile disponibile sunt reprezentate pe hartă prin puncte galbene și roșii.

Țineți indicatorul mouse-ului pe punctul dorit pentru a vedea denumirea stației.

Apoi, faceți clic pentru a vedea observațiile și prognozele meteorologice.

Pentru a schimba harta: Pentru mărire, faceți clic pe butoanele verzi cu cruce neagră; pentru micșorare, pe butonul verde cu o liniuță; pentru hărți învecinate, pe săgețile verzi.


METAR-TAF: